User: anonymous   Login
Location: *
(51.0333°S, 178.4667°E)
Time: 01:41:46
(UTC+00:00)
Language:

STARLINK-62 - Orbit

View from above orbital plane
View from above orbital plane
View from above satellite
View from above satellite

Ground track
Ground track

The orbit data is extracted from the following two-line orbital elements,

1 44274U 19029AR  20021.91667824  .00005329  00000-0  32266-3 0  9991
2 44274  52.9995 158.7002 0001537  75.6729 167.4820 15.12115563 36767
Epoch (UTC): 21 January 2020 22:00:01
Eccentricity: 0.0001537
inclination: 52.9995°
perigee height: 528 km
apogee height: 531 km
right ascension of ascending node: 158.7002°
argument of perigee: 75.6729°
revolutions per day: 15.12115563
mean anomaly at epoch: 167.4820°
orbit number at epoch: 3676

The dashed part of the orbit path shows where the satellite is in the earth's shadow,  

DLR